VAW9531 LYBE-DAAG

Flight info

Callsign VAW9531
Flight time N/A
Altitude 38000
Route VAL DCT VEBAR DCT VELIT DCT KATTI/N0454F390 DCT ASPIR DCT ABIDU DCT GITRI DCT GOKMI DCT SUPUX DCT REQIN UG26 ALR
Aircraft A320/M-SDE3FGHIRWY/LB1

Departure

Time 2026-05-01 15:01
Airport Belgrade Nikola Tesla Airport (LYBE)

Arrival

Time N/A
Airport Houari Boumediene Airport (DAAG)
Time Latitude Longitude Altitude Speed Heading
2026-05-01 14:45 44.82093 20.29286 307 ft 0 kts 211°
2026-05-01 14:55 44.82108 20.29299 308 ft 4 kts 215°
2026-05-01 14:55 44.82128 20.29320 306 ft 1 kts 218°
2026-05-01 14:55 44.82132 20.29318 308 ft 4 kts 282°
2026-05-01 14:56 44.82151 20.29303 307 ft 4 kts 335°
2026-05-01 14:56 44.82140 20.29300 307 ft 4 kts 232°
2026-05-01 14:56 44.82130 20.29291 306 ft 1 kts 208°
2026-05-01 14:56 44.82133 20.29294 308 ft 1 kts 208°
2026-05-01 14:58 44.82135 20.29286 307 ft 1 kts 276°
2026-05-01 14:59 44.82165 20.29264 308 ft 10 kts 330°
2026-05-01 14:59 44.82216 20.29177 308 ft 14 kts 303°
2026-05-01 14:59 44.82273 20.29045 308 ft 18 kts 301°
2026-05-01 14:59 44.82337 20.28908 307 ft 12 kts 314°
2026-05-01 15:00 44.82458 20.28864 307 ft 12 kts 335°
2026-05-01 15:00 44.82521 20.28925 307 ft 14 kts 95°
2026-05-01 15:00 44.82506 20.28971 308 ft 3 kts 120°
2026-05-01 15:01 44.82443 20.29112 307 ft 53 kts 122°
2026-05-01 15:01 44.82103 20.29881 308 ft 128 kts 122°
2026-05-01 15:01 44.81575 20.31040 848 ft 138 kts 120°
2026-05-01 15:01 44.81022 20.32247 1452 ft 157 kts 117°
2026-05-01 15:02 44.80421 20.33589 2176 ft 166 kts 116°
2026-05-01 15:02 44.80211 20.34056 2441 ft 169 kts 117°
2026-05-01 15:02 44.79145 20.36243 3798 ft 142 kts 125°
2026-05-01 15:02 44.78324 20.37077 4336 ft 161 kts 163°
2026-05-01 15:03 44.77153 20.36891 4727 ft 186 kts 212°
2026-05-01 15:03 44.76057 20.35740 5187 ft 208 kts 220°
2026-05-01 15:03 44.74856 20.34381 5721 ft 235 kts 220°
2026-05-01 15:03 44.73519 20.32859 6366 ft 260 kts 220°
2026-05-01 15:04 44.72047 20.31194 7165 ft 279 kts 220°
2026-05-01 15:04 44.70508 20.29464 8180 ft 288 kts 219°
2026-05-01 15:04 44.68916 20.27688 9204 ft 296 kts 219°
2026-05-01 15:04 44.67278 20.25869 10209 ft 304 kts 219°
2026-05-01 15:05 44.65597 20.24007 11136 ft 311 kts 219°
2026-05-01 15:05 44.63884 20.22108 12091 ft 316 kts 219°
2026-05-01 15:05 44.62141 20.20180 13049 ft 322 kts 219°
2026-05-01 15:05 44.60367 20.18221 14008 ft 327 kts 218°
2026-05-01 15:06 44.58564 20.16231 14851 ft 333 kts 218°
2026-05-01 15:06 44.56727 20.14204 15679 ft 338 kts 218°
2026-05-01 15:06 44.54864 20.12146 16502 ft 344 kts 218°
2026-05-01 15:06 44.52970 20.10056 17321 ft 349 kts 218°
2026-05-01 15:07 44.51044 20.07936 18125 ft 355 kts 218°
2026-05-01 15:07 44.49153 20.05590 18522 ft 374 kts 231°
2026-05-01 15:07 44.47617 20.02523 18704 ft 396 kts 238°
2026-05-01 15:07 44.46089 19.99229 19129 ft 409 kts 239°
2026-05-01 15:08 44.44540 19.95845 19782 ft 416 kts 239°
2026-05-01 15:08 44.42970 19.92415 20468 ft 422 kts 239°
2026-05-01 15:08 44.41375 19.88941 21147 ft 427 kts 239°
2026-05-01 15:08 44.39755 19.85428 21848 ft 432 kts 239°
2026-05-01 15:09 44.38109 19.81879 22466 ft 439 kts 239°
2026-05-01 15:09 44.36428 19.78270 23072 ft 446 kts 239°
2026-05-01 15:09 44.34724 19.74623 23681 ft 451 kts 239°
2026-05-01 15:09 44.32996 19.70932 24230 ft 457 kts 239°
2026-05-01 15:10 44.31270 19.67253 24731 ft 462 kts 239°
2026-05-01 15:10 44.27691 19.59626 25738 ft 471 kts 239°
2026-05-01 15:10 44.25890 19.55789 26239 ft 475 kts 239°
2026-05-01 15:11 44.24071 19.51919 26739 ft 479 kts 238°
2026-05-01 15:11 44.20391 19.44099 27707 ft 486 kts 238°
2026-05-01 15:11 44.18527 19.40147 28188 ft 490 kts 238°
2026-05-01 15:12 44.16648 19.36167 28644 ft 494 kts 238°
2026-05-01 15:12 44.12826 19.28110 29555 ft 503 kts 238°
2026-05-01 15:12 44.10892 19.24044 30031 ft 505 kts 238°
2026-05-01 15:13 44.05016 19.11702 31176 ft 517 kts 238°
2026-05-01 15:14 44.01685 19.04721 31892 ft 518 kts 238°
2026-05-01 15:14 43.99063 18.99233 32667 ft 512 kts 238°
2026-05-01 15:14 43.95153 18.91082 34020 ft 500 kts 238°
2026-05-01 15:15 43.91331 18.83137 35194 ft 491 kts 238°
2026-05-01 15:15 43.87554 18.75310 36222 ft 486 kts 238°
2026-05-01 15:16 43.84413 18.68819 37044 ft 482 kts 238°
2026-05-01 15:16 43.80693 18.61136 37893 ft 480 kts 239°
2026-05-01 15:17 43.76973 18.53462 38276 ft 479 kts 239°
2026-05-01 15:18 43.71389 18.42020 38274 ft 478 kts 239°
2026-05-01 15:19 43.63955 18.26825 38269 ft 477 kts 239°
2026-05-01 15:19 43.58361 18.15474 38238 ft 477 kts 238°
2026-05-01 15:20 43.52765 18.04138 38214 ft 476 kts 238°
2026-05-01 15:21 43.49035 17.96608 38208 ft 476 kts 238°
2026-05-01 15:21 43.45299 17.89093 38198 ft 475 kts 238°
2026-05-01 15:22 43.39702 17.77854 38230 ft 475 kts 238°
2026-05-01 15:22 43.35967 17.70375 38201 ft 474 kts 238°
2026-05-01 15:23 43.32242 17.62964 38215 ft 474 kts 238°
2026-05-01 15:23 43.28501 17.55509 38219 ft 474 kts 238°
2026-05-01 15:24 43.24755 17.48060 38220 ft 474 kts 238°
2026-05-01 15:24 43.21001 17.40628 38220 ft 474 kts 238°
2026-05-01 15:25 43.17243 17.33212 38203 ft 474 kts 238°
2026-05-01 15:25 43.13486 17.25808 38203 ft 474 kts 238°
2026-05-01 15:26 43.09717 17.18405 38209 ft 474 kts 238°
2026-05-01 15:26 43.05951 17.11015 38208 ft 474 kts 238°
2026-05-01 15:27 43.02174 17.03624 38194 ft 474 kts 238°
2026-05-01 15:28 42.96494 16.92549 38203 ft 475 kts 238°
2026-05-01 15:28 42.92699 16.85180 38214 ft 474 kts 237°
2026-05-01 15:29 42.87003 16.74149 38224 ft 474 kts 237°
2026-05-01 15:30 42.79395 16.59460 38211 ft 474 kts 237°
2026-05-01 15:31 42.67971 16.37576 38238 ft 472 kts 237°
2026-05-01 15:32 42.60368 16.23067 38234 ft 471 kts 237°
2026-05-01 15:34 42.50270 16.00556 38245 ft 461 kts 259°